This is the latest recevied weather packets stored in our database for station/object W4GAP. If no packets are shown the sender has not sent any weather packets the latest 10 day(s).
| Time | Temp. | Humidity | Pressure | Rain* | Wind** | Luminosity | Snow |
|---|---|---|---|---|---|---|---|
| 1777568837 | 20.56° C | 69% | 1008.9 hPa | 0 mm | - | 540 W/m² | - |
| 1777568535 | 20° C | 70% | 1009 hPa | 0 mm | - | 636 W/m² | - |
| 1777568230 | 20° C | 71% | 1009 hPa | 0 mm | - | 548 W/m² | - |
| 1777567927 | 20° C | 73% | 1008.9 hPa | 0 mm | - | 687 W/m² | - |
| 1777567624 | 20° C | 72% | 1009.1 hPa | 0 mm | - | 600 W/m² | - |
| 1777567321 | 20° C | 74% | 1009.2 hPa | 0 mm | - | 562 W/m² | - |
| 1777567020 | 19.44° C | 75% | 1009.1 hPa | 0 mm | - | 567 W/m² | - |
| 1777566717 | 19.44° C | 76% | 1009 hPa | 0 mm | - | 403 W/m² | - |
| 1777566415 | 18.89° C | 77% | 1009.2 hPa | 0 mm | - | 573 W/m² | - |
| 1777566111 | 18.89° C | 77% | 1008.9 hPa | 0 mm | - | 506 W/m² | - |
| 1777565807 | 18.89° C | 79% | 1008.7 hPa | 0 mm | - | 395 W/m² | - |
| 1777565503 | 18.89° C | 81% | 1008.8 hPa | 0 mm | - | 172 W/m² | - |
| 1777565200 | 18.33° C | 81% | 1009.1 hPa | 0 mm | - | 279 W/m² | - |
| 1777564896 | 18.33° C | 82% | 1009 hPa | 0 mm | - | 377 W/m² | - |
| 1777564591 | 17.78° C | 84% | 1009.2 hPa | 0 mm | - | 390 W/m² | - |
| 1777564287 | 17.78° C | 85% | 1009 hPa | 0 mm | - | 225 W/m² | - |
| 1777563983 | 17.78° C | 85% | 1009.1 hPa | 0 mm | - | 252 W/m² | - |
| 1777563680 | 17.22° C | 86% | 1009 hPa | 0 mm | - | 144 W/m² | - |
| 1777563375 | 17.22° C | 86% | 1009.2 hPa | 0 mm | - | 97 W/m² | - |
| 1777563070 | 16.67° C | 87% | 1009.1 hPa | 0 mm | - | 144 W/m² | - |
| 1777562766 | 16.67° C | 87% | 1009.1 hPa | 0 mm | - | 81 W/m² | - |
| 1777562465 | 16.67° C | 88% | 1009.1 hPa | 0 mm | - | 61 W/m² | - |
| 1777562161 | 16.67° C | 87% | 1008.9 hPa | 0 mm | - | 75 W/m² | - |
| 1777561859 | 16.67° C | 88% | 1009 hPa | 0 mm | - | 70 W/m² | - |
| 1777561556 | 16.67° C | 89% | 1009 hPa | 0 mm | - | 72 W/m² | - |
* Rain latest hour (hover to see other rain measurements)
** Current wind speed in m/s (hover to see current wind gust speed)